Location: *
(46.4833°N, 7.6667°E)
Time: 17:10:34
(UTC+00:00)

Ariane Rocket - Pass Details

Date: 27 February 2020
Orbit: 759 x 771 km, 98.7° (Epoch: 06 April)

Event Time Altitude Azimuth Distance (km) Brightness Sun altitude
Rises 19:25:13 0° 186° (S) 3,230 6.2 -23.7°
Reaches altitude 10° 19:27:40 10° 194° (SSW) 2,308 5.5 -24.1°
Maximum altitude 19:32:23 38° 262° (W) 1,170 4.4 -24.9°
Drops below altitude 10° 19:37:08 10° 331° (NNW) 2,324 6.0 -25.6°
Sets 19:39:37 0° 339° (NNW) 3,255 6.8 -26.1°
